Weather History for PAKT - January, 2012

Change the Weather History Date:

Saturday, January 7, 2012

  Actual Average Record
Temperature  
Mean Temperature 40 °F -  
Max Temperature 46 °F 38 °F 62 °F (1958)
Min Temperature 35 °F 26 °F 4 °F (1991)
Degree Days  
Heating Degree Days 24    
Moisture  
Dew Point 39 °F    
Average Humidity 89    
Maximum Humidity 96    
Minimum Humidity 74    
Precipitation  
Precipitation 2.25 in - - ()
Sea Level Pressure  
Sea Level Pressure 29.63 in    
Wind  
Wind Speed 19 mph (SE)    
Max Wind Speed 36 mph    
Max Gust Speed 45 mph    
Visibility 7 miles    
Events Rain    
Averages and records for this station are not official NWS values.
T = Trace of Precipitation, MM = Missing Value Source: NWS Daily Summary

Daily Weather History Graph

Daily Weather History Graph

Search for Another Location

Airport or City:

Trip Planner

Search our weather history database for the weather conditions in past years. The results will help you decide how hot, cold, wet, or windy it might be!

Date:

Astronomy

Jan. 07, 2012 Rise Set
Actual Time 8:11 AM AKST 3:34 PM AKST
Civil Twilight 7:26 AM AKST 4:19 PM AKST
Nautical Twilight 6:39 AM AKST 5:07 PM AKST
Astronomical Twilight 5:54 AM AKST 5:51 PM AKST
Moon 2:22 PM AKST (1/7) 6:52 AM AKST (1/7)
Length of Visible Light 8h 53m
Length of Day
7h 23m
Waxing Gibbous, 98% of the Moon is Illuminated
Jan 7
Waxing Gibbous
Jan 8
Full
Jan 16
Last Quarter
Jan 22
New
Jan 30
First Quarter

Hourly Weather History & Observations

Time (AKST) Temp. Windchill Dew Point Humidity Pressure Visibility Wind Dir Wind Speed Gust Speed Precip Events Conditions
12:40 AM 39.2 °F 32.0 °F 37.4 °F 93% 29.90 in 10.0 mi SE 11.5 mph 18.4 mph 0.01 in   Overcast
12:53 AM 41.0 °F 31.9 °F 37.0 °F 86% 29.90 in 6.0 mi SE 19.6 mph 33.4 mph 0.01 in Rain Light Rain
1:13 AM 41.0 °F 31.9 °F 37.4 °F 87% 29.89 in 10.0 mi SE 19.6 mph - 0.01 in Rain Light Rain
1:31 AM 41.0 °F 32.5 °F 37.4 °F 87% 29.87 in 10.0 mi SE 17.3 mph 33.4 mph 0.01 in Rain Light Rain
1:53 AM 39.2 °F 30.8 °F 37.4 °F 93% 29.85 in 8.0 mi SE 15.0 mph - N/A Rain Light Rain
3:53 AM 39.9 °F 31.8 °F 37.9 °F 93% 29.77 in 9.0 mi SE 15.0 mph - 0.06 in Rain Light Rain
4:53 AM 39.0 °F 26.2 °F 36.0 °F 89% 29.71 in 4.0 mi SE 35.7 mph 43.7 mph 0.12 in Rain Rain
5:53 AM 36.0 °F 23.9 °F 34.0 °F 93% 29.67 in 6.0 mi SE 25.3 mph 41.4 mph 0.19 in Rain Light Rain
6:12 AM 35.6 °F 23.4 °F 33.8 °F 93% 29.65 in 6.0 mi SE 25.3 mph 39.1 mph 0.04 in Rain Light Rain
6:53 AM 35.1 °F 23.0 °F 34.0 °F 96% 29.63 in 6.0 mi SE 24.2 mph 40.3 mph 0.12 in Rain Light Rain
7:53 AM 36.0 °F 23.2 °F 34.0 °F 93% 29.60 in 5.0 mi SE 28.8 mph 39.1 mph 0.12 in Rain Rain
8:53 AM 37.0 °F 24.7 °F 34.0 °F 89% 29.56 in 5.0 mi SE 28.8 mph 44.9 mph 0.09 in Rain Light Rain
9:53 AM 39.0 °F 28.5 °F 37.0 °F 93% 29.55 in 3.0 mi SSE 23.0 mph 35.7 mph 0.11 in Rain Rain
10:53 AM 41.0 °F 31.6 °F 37.9 °F 89% 29.55 in 4.0 mi SSE 20.7 mph 28.8 mph 0.21 in Rain Rain
11:53 AM 42.1 °F 32.6 °F 39.0 °F 89% 29.49 in 4.0 mi SE 23.0 mph 32.2 mph 0.22 in Rain Rain
12:53 PM 44.1 °F 35.4 °F 41.0 °F 89% 29.52 in 4.0 mi SE 21.9 mph 40.3 mph 0.36 in Rain Heavy Rain
1:53 PM 45.0 °F 35.8 °F 43.0 °F 93% 29.52 in 3.0 mi SE 26.5 mph 36.8 mph 0.23 in Rain Light Rain
2:53 PM 46.0 °F 37.8 °F 44.1 °F 93% 29.50 in 5.0 mi SE 23.0 mph 31.1 mph 0.08 in Rain Light Rain
3:53 PM 46.9 °F - 44.1 °F 90% 29.52 in 4.0 mi SE 17.3 mph 32.2 mph 0.05 in Rain Light Rain
4:53 PM 46.9 °F - 44.1 °F 90% 29.53 in 8.0 mi SE 13.8 mph 25.3 mph 0.03 in Rain Light Rain
5:53 PM 46.0 °F 38.8 °F 45.0 °F 96% 29.52 in 10.0 mi SE 18.4 mph 25.3 mph 0.05 in Rain Light Rain
6:53 PM 46.9 °F - 45.0 °F 93% 29.52 in 6.0 mi SE 18.4 mph - 0.04 in Rain Light Rain
7:53 PM 46.9 °F - 45.0 °F 93% 29.53 in 10.0 mi SE 15.0 mph - 0.07 in Rain Light Rain
8:53 PM 46.9 °F - 43.0 °F 86% 29.55 in 10.0 mi SE 9.2 mph 24.2 mph 0.05 in Rain Light Rain
9:53 PM 46.9 °F - 43.0 °F 86% 29.58 in 10.0 mi ESE 15.0 mph 20.7 mph 0.01 in   Overcast
10:53 PM 46.9 °F - 41.0 °F 80% 29.61 in 10.0 mi SSE 13.8 mph 20.7 mph 0.03 in Rain Light Rain
11:00 PM 46.4 °F 41.9 °F 41.0 °F 81% 29.60 in 10.0 mi SSE 9.2 mph 24.2 mph 0.00 in Rain Light Rain
11:33 PM 46.4 °F 41.9 °F 39.2 °F 76% 29.62 in 10.0 mi SSE 9.2 mph 19.6 mph 0.00 in   Mostly Cloudy
11:53 PM 46.9 °F - 39.0 °F 74% 29.63 in 10.0 mi SSE 8.1 mph 24.2 mph 0.00 in   Mostly Cloudy